sat.trackr.live / text

‹ back to catalog

STARLINK-34601

NORAD 65084 · 2025-167G

PAYLOAD ACTIVE UNKNOWN

§ Identity

Operator
Country
US
Launch date
2025-08-04
Launch site
AFETR
Launch vehicle
Mass (kg)
RCS (m²)

Purposes: comms

External: N2YO · Heavens-Above · Gunter

§ Orbital elements

Epoch: 2026-05-25T00:00:02.000160Z

Period
93.38 min
Inclination
53.1588°
Eccentricity
0.0001136
Mean motion
15.42136603 rev/d
Perigee alt
439.0 km
Apogee alt
440.6 km
Semi-major
6,817.9 km
B*
5.7339e-4
RAAN
29.7584°
Arg perigee
75.6400°
Mean anomaly
74.3720°
Rev number
586

§ Raw data

STARLINK-346011 65084U 25167G   26145.00002315  .00024601  00000+0  57339-3 0  99952 65084  53.1588  29.7584 0001136  75.6400  74.3720 15.42136603  5866

JSON: /api/v1/satellites/65084 · /tle

For live sub-satellite position, see the globe view (requires WebGL).

§ Visibility from observer

Set your observer location to see the next 7 days of passes ≥ 10°. The values pass through the URL so the page stays shareable.

No JS? Fill the form by hand. The geolocation button needs JavaScript.